SL-12 DEB

Satellite information

Favourite Embed

Satellite Type and Status

DEBRISIN ORBIT

Key statistics

Satellite SL-12 DEB at a glance.

Uptime

13295

Days in orbit

Revolutions

≈ 2.1

Per day

Orbit

MEO

Medium Earth Orbit

Inclination

65.1

Latest

Satellite identification and parameters

Extended collection of information and parameters for SL-12 DEB.

Object identification

Identified? True

Debris? True

Object name: SL-12 DEB

International designator: 1989-039F

Object number (NORAD): 20044

Object ID (CCSDS): 20044

Country: COMMONWEALTH OF INDEPENDENT STATES (CIS)

Current information (Y/N): Y

RCS size: MEDIUM

Orbital parameters

Period: 675.405 minutes

Inclination: 65.0787 deg

SMA: 25499.776 km

Apoapsis: 19177.883 km

Periapsis: 19065.399 km

RAAN: 318.6806 deg

Eccentricy: 0.0022056

Argument of periapsis: 216.2857 deg

Mean anomaly: 324.9114 deg

Mean motion: 2.13205405 rev/day

Mean motion (dot): -0.00000039 rev/day2

B* drag term: 0.0 1/REarth

Two-line elements (TLE)

Creation date: Oct. 23, 2025, 10:16 p.m.

Reference frame: TEME

Reference center: EARTH

Epoch: Oct. 23, 2025, 7:59 a.m. UTC

TLE line 0: 0 SL-12 DEB

TLE line 1: 1 20044U 89039F 25296.33319227 -.00000039 00000-0 00000+0 0 9995

TLE line 2: 2 20044 65.0787 318.6806 0022056 216.2857 324.9114 2.13205405281606

Live tracking on map

Real-time ground track for satellite SL-12 DEB.

In-orbit conjunctions

A list of the most updated potential collisions computed for object SL-12 DEB.

Target Orbit TCA Probability of collision Miss distance Type
COSMOS 1556 (GLONASS) MEO 2024-09-06 09:37:50 TBA 4752.0 (m) PAYLOAD

Associated space launch

GLONASS navigation satellites

SL-12 DEB was lifted into orbit during the mission ‘Proton | Uragan 34 & 35’, on board a Proton space rocket.

The launch took place on May 31, 1989, 8:31 a.m. from 200/40.

For more information about the launch, click the button.

Launch to space Proton | Uragan 34 & 35
Proton | Uragan 34 & 35

Agency: N/A

Status: Launch Successful

Launch date: May 31, 1989, 8:31 a.m. UTC

Rocket: Proton

Launch pad: 200/40

Location: Baikonur Cosmodrome, Republic of Kazakhstan

...

Latest news about this satellite

There are no fresh news available about this satellite. Check back as we update our databases every day.


Newsletter sign-up

Weekly statistics, charts and insights to help you stay on top of the space industry.